FW8892 Weather Reports


Display with metric or nautical units.
time (UTC)temp
F
wind
direction
speed
MPH
gust
MPH
rain 1hr
in
rain 24hr
in
rain mn
in
humidity
%
barometer
mb
20260507024556 52 0 0.0 4.0 0.00 0.57 0.57 96 1014.6
20260507024027 52 0 0.0 4.0 0.00 0.57 0.57 96 1014.4
20260507023526 52 0 1.0 4.0 0.00 0.57 0.57 96 1014.3
20260507023048 52 0 1.0 3.0 0.00 0.57 0.57 96 1014.6
20260507022530 52 0 0.0 1.0 0.00 0.57 0.57 96 1015.4
20260507022032 52 0 0.0 3.0 0.00 0.57 0.57 96 1015.6
20260507021550 52 0 0.0 3.0 0.00 0.57 0.57 96 1015.0
20260507021028 52 319 0.0 2.0 0.01 0.57 0.57 96 1015.1
20260507020527 52 313 0.0 2.0 0.01 0.57 0.57 96 1015.2
20260507020051 52 0 0.0 0.0 0.01 0.57 0.57 96 1015.6
20260507015528 52 0 0.0 0.0 0.01 0.58 0.57 95 1015.2
20260507015027 52 0 0.0 0.0 0.01 0.58 0.57 95 1015.3
20260507014544 52 0 0.0 0.0 0.01 0.58 0.57 96 1015.1
20260507014027 52 0 0.0 0.0 0.01 0.58 0.57 95 1014.7
20260507013527 52 0 0.0 0.0 0.01 0.58 0.57 95 1015.0
20260507013048 52 0 0.0 1.0 0.01 0.58 0.57 95 1015.3
20260507012531 53 0 0.0 1.0 0.01 0.58 0.57 95 1015.3
20260507012030 53 0 0.0 2.0 0.01 0.58 0.57 96 1015.9
20260507011548 53 0 0.0 2.0 0.01 0.58 0.57 96 1016.0
20260507011029 53 262 0.0 2.0 0.00 0.57 0.56 95 1016.0
20260507010529 53 0 0.0 2.0 0.00 0.57 0.56 95 1016.1
20260507010105 53 355 0.0 2.0 0.00 0.57 0.56 95 1015.5
20260507005530 53 0 0.0 1.0 0.00 0.58 0.56 95 1014.7
20260507005027 53 0 0.0 1.0 0.00 0.58 0.56 95 1014.2
20260507004545 53 0 0.0 0.0 0.00 0.58 0.56 95 1014.1
20260507004031 53 0 0.0 1.0 0.00 0.58 0.56 95 1014.1
20260507003528 53 0 0.0 2.0 0.00 0.58 0.56 95 1013.9
20260507003041 53 0 0.0 2.0 0.01 0.58 0.56 95 1014.0
20260507002529 53 348 0.0 2.0 0.01 0.58 0.56 95 1013.9
20260507002027 53 0 0.0 2.0 0.02 0.58 0.56 95 1014.1
20260507001546 53 0 0.0 3.0 0.02 0.58 0.56 94 1014.0
20260507001029 53 0 1.0 5.0 0.03 0.58 0.56 94 1013.8
20260507000529 53 0 0.0 5.0 0.03 0.58 0.56 94 1013.9
20260507000050 53 337 0.0 2.0 0.04 0.58 0.56 94 1013.8
20260506235530 53 345 0.0 6.0 0.04 0.61 0.56 93 1013.9
20260506235029 53 0 1.0 6.0 0.05 0.61 0.56 93 1013.3
20260506234546 53 65 2.0 4.0 0.06 0.61 0.56 93 1012.7
20260506234029 53 84 1.0 4.0 0.06 0.61 0.56 93 1013.3
20260506233527 54 323 1.0 4.0 0.07 0.61 0.56 93 1013.3
20260506233057 54 15 1.0 4.0 0.07 0.60 0.55 92 1013.6
20260506232527 54 346 0.0 3.0 0.07 0.60 0.55 92 1014.2
20260506232028 54 0 0.0 4.0 0.06 0.58 0.54 92 1014.4
20260506231545 54 0 1.0 4.0 0.06 0.58 0.54 91 1014.2
20260506231027 54 0 1.0 4.0 0.05 0.58 0.52 91 1014.4
20260506230527 55 0 0.0 4.0 0.05 0.58 0.52 91 1014.6
20260506230045 55 0 0.0 4.0 0.04 0.57 0.52 91 1014.9
20260506225527 55 318 0.0 3.0 0.04 0.64 0.52 90 1015.0
20260506225030 56 0 0.0 3.0 0.03 0.63 0.51 90 1015.0
20260506224541 56 319 0.0 3.0 0.02 0.62 0.50 89 1014.6
20260506224029 56 0 0.0 3.0 0.02 0.62 0.50 89 1014.5
20260506223529 56 334 0.0 5.0 0.01 0.61 0.49 88 1014.4
20260506223047 56 339 0.0 5.0 0.00 0.60 0.48 87 1014.3
20260506222530 57 331 0.0 2.0 0.00 0.60 0.48 87 1014.2
20260506222030 57 321 0.0 2.0 0.00 0.60 0.48 86 1014.3
20260506221548 57 0 0.0 2.0 0.00 0.60 0.48 86 1014.2
20260506221029 57 0 0.0 3.0 0.00 0.60 0.48 85 1014.2
20260506220527 57 333 0.0 3.0 0.00 0.60 0.48 84 1014.0
20260506220050 58 319 0.0 3.0 0.00 0.60 0.48 84 1014.0
20260506215527 58 0 1.0 3.0 0.00 0.60 0.48 83 1014.0
20260506215028 58 0 0.0 3.0 0.00 0.60 0.48 83 1014.2
20260506214543 58 0 1.0 3.0 0.00 0.60 0.48 82 1014.3
20260506214031 58 0 1.0 2.0 0.00 0.60 0.48 82 1014.5
20260506213528 58 296 0.0 5.0 0.00 0.60 0.48 81 1014.4
20260506213041 58 0 1.0 6.0 0.00 0.60 0.48 81 1014.4
20260506212532 58 327 2.0 6.0 0.00 0.60 0.48 81 1014.0
20260506212029 58 350 0.0 5.0 0.00 0.60 0.48 81 1013.7
20260506211548 59 329 1.0 8.0 0.00 0.60 0.48 82 1013.6
20260506211029 59 341 2.0 8.0 0.00 0.60 0.48 81 1013.7
20260506210530 59 321 1.0 5.0 0.00 0.60 0.48 83 1013.3
20260506210048 59 333 1.0 5.0 0.00 0.60 0.48 83 1013.2
20260506205529 59 0 1.0 3.0 0.00 0.60 0.48 83 1013.4
20260506205028 59 0 1.0 5.0 0.00 0.60 0.48 82 1013.3
20260506204548 59 355 2.0 5.0 0.00 0.60 0.48 80 1013.5
20260506204029 59 0 0.0 2.0 0.00 0.60 0.48 81 1014.1
20260506203530 59 219 0.0 2.0 0.00 0.60 0.48 80 1014.3
20260506203047 59 298 0.0 5.0 0.00 0.60 0.48 80 1014.5
20260506202532 59 0 1.0 5.0 0.00 0.60 0.48 80 1014.2
20260506202030 59 0 1.0 5.0 0.00 0.60 0.48 80 1013.7
20260506201547 60 299 1.0 4.0 0.00 0.60 0.48 80 1014.0
20260506201029 60 286 1.0 4.0 0.00 0.60 0.48 80 1014.1
20260506200529 60 44 1.0 5.0 0.00 0.60 0.48 80 1013.7
20260506200043 60 5 2.0 9.0 0.00 0.60 0.48 80 1013.7
20260506195527 60 294 1.0 9.0 0.00 0.60 0.48 80 1013.7
20260506195032 60 315 1.0 9.0 0.00 0.60 0.48 80 1013.7
20260506194548 60 280 1.0 6.0 0.00 0.60 0.48 83 1013.9
20260506194030 60 355 2.0 6.0 0.00 0.60 0.48 81 1013.2
20260506193529 60 307 1.0 6.0 0.00 0.60 0.48 81 1013.5
20260506193048 60 355 2.0 5.0 0.00 0.60 0.48 79 1013.4
20260506192529 60 0 1.0 6.0 0.00 0.60 0.48 81 1014.0
20260506192029 60 0 1.0 10.0 0.00 0.60 0.48 81 1014.1
20260506191547 60 360 3.0 10.0 0.00 0.60 0.48 82 1014.0
20260506191030 60 284 2.0 6.0 0.00 0.60 0.48 85 1013.7
20260506190529 59 0 1.0 6.0 0.00 0.60 0.48 87 1013.4
20260506190047 58 339 2.0 4.0 0.00 0.60 0.48 86 1013.8
20260506185527 57 318 1.0 3.0 0.00 0.60 0.48 85 1014.0
20260506185029 57 355 0.0 2.0 0.00 0.60 0.48 86 1014.0
20260506184546 57 5 1.0 2.0 0.00 0.60 0.48 85 1014.1
20260506184029 57 0 0.0 2.0 0.00 0.60 0.48 86 1014.5
20260506183530 57 0 0.0 2.0 0.00 0.60 0.48 85 1014.6
20260506183044 57 226 0.0 3.0 0.00 0.60 0.48 88 1014.7
20260506182529 56 0 0.0 3.0 0.00 0.60 0.48 88 1015.0
20260506182031 56 0 0.0 2.0 0.00 0.60 0.48 89 1014.7
20260506181540 56 0 0.0 3.0 0.00 0.60 0.48 90 1014.9
20260506181030 55 0 0.0 3.0 0.00 0.60 0.48 90 1014.7
20260506180532 55 355 1.0 5.0 0.00 0.60 0.48 88 1014.7
20260506180048 55 13 1.0 8.0 0.00 0.60 0.48 88 1014.4
20260506175529 55 0 2.0 8.0 0.00 0.60 0.48 88 1014.3
20260506175027 55 298 1.0 6.0 0.00 0.60 0.48 90 1014.1
20260506174555 55 302 2.0 6.0 0.00 0.60 0.48 91 1014.0
20260506174029 55 317 2.0 6.0 0.00 0.60 0.48 92 1013.8
20260506173529 54 343 2.0 8.0 0.00 0.60 0.48 94 1013.7
20260506173101 53 309 3.0 8.0 0.00 0.60 0.48 93 1013.5
20260506172529 53 346 1.0 8.0 0.00 0.60 0.48 95 1013.4
20260506172029 53 0 1.0 6.0 0.00 0.60 0.48 95 1013.8
20260506171543 53 348 1.0 6.0 0.00 0.60 0.48 97 1013.6
20260506171029 52 322 1.0 7.0 0.00 0.60 0.48 97 1013.6
20260506170528 52 324 2.0 7.0 0.00 0.60 0.48 96 1013.4
20260506170046 51 51 3.0 9.0 0.00 0.60 0.48 96 1013.4
20260506165531 51 316 1.0 9.0 0.00 0.60 0.48 96 1013.6
20260506165030 51 53 3.0 9.0 0.00 0.60 0.48 96 1013.8
20260506164602 51 341 2.0 8.0 0.00 0.60 0.48 96 1013.9
20260506164026 51 338 2.0 6.0 0.00 0.60 0.48 96 1014.0
20260506163532 51 302 1.0 8.0 0.00 0.60 0.48 96 1014.1
20260506163050 51 355 2.0 8.0 0.00 0.60 0.48 96 1014.2
20260506162529 51 18 2.0 5.0 0.00 0.60 0.48 96 1014.2
20260506162030 52 321 1.0 5.0 0.00 0.60 0.48 96 1014.4
20260506161550 52 355 1.0 5.0 0.00 0.60 0.48 97 1014.2
20260506161029 51 313 1.0 4.0 0.00 0.60 0.48 96 1014.1
20260506160529 51 346 1.0 4.0 0.00 0.60 0.48 96 1013.9
20260506160047 51 46 1.0 4.0 0.00 0.60 0.48 97 1013.9
20260506155529 51 319 1.0 3.0 0.00 0.60 0.48 97 1013.9
20260506155029 51 355 1.0 4.0 0.00 0.60 0.48 96 1013.9
20260506154549 51 33 1.0 4.0 0.00 0.60 0.48 96 1013.9
20260506154029 51 355 1.0 4.0 0.00 0.60 0.48 96 1013.8
20260506153528 51 0 0.0 5.0 0.00 0.60 0.48 96 1014.0
20260506153044 51 0 1.0 9.0 0.00 0.60 0.48 96 1013.7
20260506152529 51 5 3.0 9.0 0.00 0.60 0.48 96 1013.7
20260506152031 51 341 0.0 3.0 0.00 0.60 0.48 97 1013.9
20260506151548 50 338 1.0 5.0 0.00 0.60 0.48 96 1013.7
20260506151030 51 338 2.0 5.0 0.00 0.60 0.48 96 1013.8
20260506150530 51 322 2.0 5.0 0.00 0.60 0.48 96 1013.6
20260506150057 51 347 0.0 5.0 0.00 0.60 0.48 97 1013.5
20260506145531 51 355 1.0 8.0 0.00 0.60 0.48 97 1013.3
20260506145029 50 19 1.0 8.0 0.00 0.60 0.48 96 1013.1
20260506144602 50 330 3.0 8.0 0.00 0.60 0.48 96 1013.2
20260506144029 51 33 3.0 8.0 0.00 0.60 0.48 97 1013.2
20260506143530 51 28 2.0 5.0 0.00 0.60 0.48 97 1013.2
20260506143052 50 355 1.0 8.0 0.00 0.60 0.48 97 1013.1
20260506142530 50 292 1.0 8.0 0.00 0.60 0.48 97 1012.9
20260506142028 50 315 2.0 10.0 0.00 0.60 0.48 97 1012.7
20260506141544 50 333 2.0 10.0 0.00 0.60 0.48 97 1012.7
20260506141029 50 293 3.0 10.0 0.00 0.60 0.48 97 1012.5
20260506140529 50 339 2.0 9.0 0.00 0.60 0.48 97 1012.3
20260506140057 50 309 3.0 9.0 0.00 0.60 0.48 97 1012.3
20260506135528 50 5 2.0 8.0 0.00 0.60 0.48 97 1012.1
20260506135028 50 288 2.0 8.0 0.01 0.60 0.48 97 1012.2
20260506134547 50 300 2.0 8.0 0.01 0.60 0.48 96 1012.2
20260506134032 50 350 2.0 8.0 0.01 0.60 0.48 96 1012.0
20260506133528 50 5 2.0 7.0 0.01 0.60 0.48 96 1011.8
20260506133101 50 0 2.0 5.0 0.01 0.60 0.48 96 1011.7
20260506132528 50 323 1.0 5.0 0.01 0.60 0.48 96 1011.8
20260506132026 50 352 1.0 5.0 0.01 0.60 0.48 96 1011.8
20260506131548 50 0 1.0 5.0 0.01 0.60 0.48 96 1011.9
20260506131030 50 355 1.0 4.0 0.01 0.60 0.48 96 1011.7
20260506130528 50 0 2.0 5.0 0.01 0.60 0.48 96 1011.5
20260506130121 50 344 1.0 5.0 0.01 0.60 0.48 96 1011.8
20260506125526 50 340 1.0 5.0 0.01 0.60 0.48 96 1012.0
20260506125028 50 319 0.0 2.0 0.00 0.58 0.47 96 1012.0
20260506124548 50 331 0.0 2.0 0.00 0.58 0.47 96 1012.3
20260506124031 50 0 0.0 2.0 0.00 0.58 0.47 96 1012.1
20260506123530 50 355 0.0 4.0 0.00 0.58 0.47 96 1012.1
20260506123045 50 9 1.0 8.0 0.00 0.58 0.47 96 1011.8
20260506122530 50 0 2.0 8.0 0.01 0.58 0.47 96 1011.8
20260506122028 50 343 2.0 6.0 0.01 0.58 0.47 96 1011.8
20260506121554 50 0 1.0 8.0 0.01 0.58 0.47 96 1011.8
20260506121029 50 329 1.0 8.0 0.01 0.58 0.47 96 1011.8
20260506120529 50 305 1.0 4.0 0.01 0.58 0.47 96 1011.6
20260506120049 50 0 0.0 4.0 0.03 0.58 0.47 96 1011.4
20260506115530 50 315 1.0 4.0 0.05 0.58 0.47 96 1011.5
20260506115026 50 319 0.0 5.0 0.09 0.58 0.47 96 1011.3
20260506114548 50 0 1.0 5.0 0.13 0.58 0.47 96 1011.2
20260506114029 50 280 1.0 5.0 0.16 0.58 0.47 96 1011.2
20260506113530 50 0 1.0 5.0 0.17 0.58 0.47 96 1011.4
20260506113054 50 300 1.0 4.0 0.17 0.58 0.47 96 1011.3
20260506112530 50 0 0.0 6.0 0.16 0.58 0.46 96 1010.8
20260506112030 50 340 2.0 6.0 0.16 0.58 0.46 96 1010.9
20260506111544 50 307 1.0 4.0 0.16 0.58 0.46 96 1011.0
20260506111028 50 319 1.0 6.0 0.16 0.58 0.46 96 1010.8
20260506110530 51 344 0.0 6.0 0.16 0.58 0.46 96 1010.4
20260506110051 51 0 2.0 6.0 0.14 0.56 0.44 96 1010.4
20260506105529 51 285 1.0 6.0 0.11 0.52 0.41 96 1010.7
20260506105030 51 329 2.0 6.0 0.07 0.49 0.37 96 1010.4
20260506104555 51 294 1.0 4.0 0.03 0.45 0.33 96 1010.7
20260506104028 51 0 1.0 4.0 0.01 0.43 0.31 96 1010.3
20260506103529 51 0 0.0 4.0 0.00 0.42 0.30 96 1010.1
20260506103047 51 0 0.0 4.0 0.00 0.42 0.30 96 1010.2
20260506102531 51 0 0.0 3.0 0.01 0.42 0.30 96 1010.2
20260506102029 51 5 0.0 3.0 0.01 0.42 0.30 96 1010.1
20260506101546 51 0 0.0 4.0 0.01 0.42 0.30 95 1009.9
20260506101028 51 0 0.0 6.0 0.01 0.42 0.30 95 1009.8
20260506100528 51 342 1.0 6.0 0.02 0.42 0.30 95 1009.8
20260506095530 51 71 1.0 4.0 0.02 0.42 0.30 96 1009.6
20260506095028 51 327 1.0 4.0 0.03 0.42 0.30 95 1009.5
20260506094545 51 18 0.0 5.0 0.03 0.42 0.30 95 1009.7
20260506094031 51 5 1.0 8.0 0.03 0.42 0.30 95 1009.6
20260506093528 51 355 2.0 8.0 0.04 0.42 0.30 95 1009.8
20260506093044 51 300 2.0 5.0 0.05 0.42 0.30 95 1009.6
20260506092529 51 0 2.0 5.0 0.07 0.41 0.29 95 1009.8
20260506092030 52 284 1.0 5.0 0.07 0.41 0.29 95 1009.8
20260506091540 52 352 1.0 4.0 0.07 0.41 0.29 95 1009.8
20260506091034 52 348 0.0 5.0 0.07 0.41 0.29 95 1009.9
20260506090531 52 0 0.0 6.0 0.06 0.40 0.28 95 1009.9
20260506090048 52 355 0.0 6.0 0.07 0.40 0.28 95 1009.9
20260506085528 52 307 1.0 5.0 0.09 0.40 0.28 95 1009.7
20260506085031 52 325 1.0 4.0 0.09 0.39 0.27 95 1009.6
20260506084552 52 275 1.0 12.0 0.09 0.39 0.27 94 1009.8
20260506084029 53 0 1.0 12.0 0.08 0.38 0.26 94 1009.8
20260506083531 53 320 3.0 12.0 0.08 0.38 0.26 94 1009.7
20260506083050 53 242 1.0 9.0 0.07 0.37 0.25 94 1010.3
20260506082530 53 245 2.0 4.0 0.06 0.34 0.22 94 1009.9
20260506082030 53 298 1.0 8.0 0.07 0.34 0.22 94 1009.3
20260506081600 54 298 2.0 8.0 0.07 0.34 0.22 94 1009.1
20260506081030 54 298 1.0 6.0 0.07 0.34 0.22 93 1008.9
20260506080530 54 287 1.0 8.0 0.07 0.33 0.21 93 1008.6
20260506073050 59 304 2.0 6.0 0.07 0.30 0.18 92 1007.6
20260506072529 60 277 1.0 8.0 0.08 0.27 0.15 91 1007.5
20260506072029 61 338 2.0 12.0 0.11 0.27 0.15 91 1007.6
20260506071548 62 22 3.0 12.0 0.12 0.27 0.15 90 1007.6
20260506071030 63 355 1.0 5.0 0.12 0.27 0.15 93 1007.0
20260506070733 64 285 2.0 5.0 0.11 0.26 0.14 94 1007.2
20260506062028 66 315 1.0 11.0 0.04 0.16 0.04 88 1007.2
20260506061549 66 277 2.0 11.0 0.03 0.15 0.03 87 1006.9
20260506061029 66 232 5.0 11.0 0.03 0.15 0.03 87 1006.2
20260506060529 66 236 4.0 13.0 0.03 0.15 0.03 87 1006.1
20260506051028 67 228 7.0 13.0 0.00 0.12 0.00 84 1007.0
20260506050528 66 185 4.0 15.0 0.00 0.12 0.00 84 1007.1
20260506045028 66 159 6.0 13.0 0.00 0.12 0.12 85 1007.1
20260506044547 66 171 5.0 16.0 0.00 0.12 0.12 85 1007.3
20260506044025 66 197 5.0 16.0 0.00 0.12 0.12 85 1007.2
20260506043527 65 194 3.0 13.0 0.00 0.12 0.12 86 1007.1
20260506043048 65 200 5.0 13.0 0.00 0.12 0.12 86 1007.2
20260506042526 65 146 5.0 13.0 0.00 0.12 0.12 86 1007.2
20260506042029 65 186 5.0 12.0 0.00 0.12 0.12 86 1007.2
20260506041547 65 157 6.0 14.0 0.00 0.12 0.12 87 1007.4
20260506041028 65 157 5.0 14.0 0.00 0.12 0.12 88 1007.3
20260506040528 64 164 5.0 12.0 0.00 0.12 0.12 88 1007.4
20260506040044 64 190 4.0 9.0 0.00 0.12 0.12 89 1007.4
20260506035528 64 175 3.0 10.0 0.00 0.12 0.12 89 1007.5
20260506035028 64 116 4.0 10.0 0.00 0.12 0.12 90 1007.6
20260506034559 64 153 3.0 10.0 0.00 0.12 0.12 90 1007.6
20260506034027 63 148 3.0 10.0 0.00 0.12 0.12 90 1007.8
20260506033526 63 191 4.0 9.0 0.00 0.12 0.12 90 1007.7
20260506033049 63 205 3.0 9.0 0.00 0.12 0.12 91 1007.7
20260506032526 63 160 2.0 11.0 0.00 0.12 0.12 91 1007.7
20260506032028 63 215 4.0 11.0 0.00 0.12 0.12 91 1007.7
20260506031548 63 170 3.0 9.0 0.00 0.12 0.12 91 1007.8
20260506031029 63 213 3.0 13.0 0.00 0.12 0.12 92 1007.6
20260506030528 63 187 4.0 13.0 0.00 0.12 0.12 92 1007.9
20260506030046 62 200 4.0 9.0 0.00 0.12 0.12 93 1007.8
20260506025527 62 219 4.0 8.0 0.00 0.12 0.12 93 1007.8
20260506025027 62 201 2.0 10.0 0.00 0.12 0.12 93 1007.9